Home   Weather   Igloolik   Past weeks

Flag for Canada Past Weather in Igloolik, Nunavut, Canada — Yesterday and Last 2 Weeks

Now
3 °F

Partly sunny.


Feels Like: -17 °F
Forecast: -7 / 7 °F
Wind: 17 mph from North

Location: Hall Beach

Current Time: Apr 30, 2017 at 1:07:38 pm

Latest Report: Apr 30, 2017 at 12:00 pm


Visibility: 8 mi

Pressure: 29.88 "Hg

Humidity: 72%

Dew Point: -4 °F

Location of IgloolikLocation

Past Weather in Igloolik — Graph

°F

Igloolik Temperature Yesterday

Maximum temperature yesterday: 5 °F (at 4:00 pm)
Minimum temperature yesterday: -6 °F (at 5:00 am)
Average temperature yesterday: -1 °F

High & Low Weather Summary for the Past Weeks

 TemperatureHumidityPressure
High16 °F (Apr 28, 11:00 am)92% (Apr 16, 11:00 am)30.33 "Hg (Apr 16, 11:00 am)
Low-18 °F (Apr 27, 6:00 am)71% (Apr 26, 10:00 am)29.76 "Hg (Apr 18, 1:00 pm)
Average1 °F80%30.05 "Hg
* Reported Apr 15 11:00 am — Apr 30 11:00 am, Igloolik, Weather by CustomWeather, © 2017

Note: Actual official high and low records may vary slightly from our data, if they occured in-between our weather recording intervals... More about our weather records

Advertising

Igloolik Weather History for the Previous 24 Hours

Scroll right to see more
 ConditionsComfort  
Time TempWeatherWind HumidityBarometerVisibility
11:00 am
Sun, Apr 30
3 °FPartly sunny.18 mph72%29.88 "Hg8 mi
10:00 am1 °FScattered clouds.18 mph71%29.88 "Hg8 mi
9:00 am-4 °FScattered clouds.14 mph77%29.88 "Hg8 mi
8:00 am-6 °FScattered clouds.15 mph77%29.87 "Hg8 mi
7:00 am-9 °FPassing clouds.15 mph77%29.86 "Hg9 mi
6:00 am-11 °FSunny.16 mph76%29.85 "Hg9 mi
5:00 am-13 °FSunny.15 mph76%29.86 "Hg9 mi
4:00 am-13 °FClear.16 mph76%29.85 "Hg9 mi
3:00 am-11 °FClear.18 mph76%29.83 "Hg9 mi
2:00 am-11 °FClear.18 mph76%29.84 "Hg9 mi
1:00 am-9 °FClear.17 mph77%29.83 "Hg9 mi
12:00 am-8 °FClear.18 mph77%29.83 "Hg9 mi
11:00 pm
Sat, Apr 29
-6 °FClear.21 mph77%29.84 "Hg9 mi
10:00 pm-4 °FSunny.17 mph77%29.85 "Hg9 mi
9:36 pm-2 °FLight snow. Sunny.20 mph77%29.85 "Hg9 mi
9:23 pm-2 °FSunny.20 mph77%29.85 "Hg9 mi
8:56 pm0 °FLight snow. Sunny.23 mph78%29.84 "Hg5 mi
8:00 pm1 °FLow level haze.23 mph78%29.85 "Hg12 mi
7:00 pm3 °FLow level haze.22 mph78%29.84 "Hg10 mi
6:00 pm3 °FLow level haze.24 mph78%29.84 "Hg6 mi
5:40 pm5 °FScattered clouds.21 mph78%29.84 "Hg6 mi
5:00 pm5 °FScattered clouds.22 mph78%29.84 "Hg3 mi
4:00 pm5 °FScattered clouds.25 mph78%29.83 "Hg2 mi
3:00 pm3 °FIce fog.23 mph85%29.83 "Hg2 mi
2:19 pm3 °FIce fog.23 mph78%29.83 "Hg2 mi
1:00 pm3 °FIce fog.22 mph78%29.83 "Hg1 mi
Weather by CustomWeather, © 2017

See weather overviewHow to use our weather pages